SCP
-0 -0 -0 -0 -0 -0 -0 -0 -0 0 0 0 0 0 0 0 0 0 0 0 0 0 0 0 0 0 0 0 0 0 0 0 0 0 0 0 0 0 0 0 0 -0 0 0 0 0 0 -0 -0 0 0 0 0 -0
-0 -0 -0 -0 -0 -0 -0 -0 -0 0 0 0 0 0 0 0 0 0 0 0 0 0 0 0 0 0 0 0 0 0 0 0 0 0 0 0 0 0 0 0 0 0 0 0 0 0 0 -0 -0 -0 0 -0 0 0
-0 -0 0 -0 -0 -0 -0 -0 -0 0 -0 -0 0 0 0 0 0 0 0 0 0 0 0 0 0 0 0 0 0 0 0 0 0 0 0 0 0 0 0 0 0 0 0 0 0 0 0 0 0 0 0 0 0 0
-0 -0 -0 -0 -0 -0 -0 -0 -0 0 -0 -0 -0 0 -0 0 0 0 0 0 0 0 0 0 0 0 0 0 0 0 0 0 -0 0 0 0 0 0 0 0 0 0 0 0 0 0 0 0 0 0 0 0 0 0
-0 -0 -0 -0 -0 -0 -0 -0 0 0 -0 -0 -0 -0 -0 -0 0 0 0 0 0 0 0 0 0 0 0 0 0 0 0 0 -0 0 0 0 0 0 0 0 0 0 0 0 0 0 0 0 0 0 0 0 0 0
-0 -0 -0 -0 -0 -0 -0 0 0 -0 -0 -0 -0 -0 -0 0 0 0 0 0 0 0 0 0 0 0 0 0 0 0 0 0 0 -0 0 0 0 0 0 0 0 0 0 0 0 0 0 0 0 0 0 0 0 0
-0 0 -0 -0 -0 -0 -0 0 -0 -0 -0 -0 -0 -0 -0 -0 0 0 0 0 0 0 0 0 0 0 0 0 0 0 0 0 0 -0 0 0 0 0 0 0 0 0 0 0 0 0 0 0 0 0 0 0 0 0
-0 -0 -0 -0 -0 -0 -0 -0 -0 -0 -0 -0 -0 -0 -0 0 0 0 0 0 0 0 0 0 0 0 0 0 0 0 0 0 0 0 0 0 0 0 0 0 0 0 0 0 0 0 0 0 0 0 0 0 0 0
-0 -0 -0 -0 -0 -0 -0 -0 0 0 -0 -0 -0 -0 0 0 0 0 0 0 0 0 0 0 0 0 0 0 0 0 0 0 0 0 0 0 0 0 0 0 0 0 0 0 0 0 0 0 0 0 0 0 0 0
-0 -0 -0 -0 -0 -0 -0 0 0 -0 -0 -0 0 0 0 0 0 0 0 0 0 0 0 0 0 0 0 0 0 0 0 0 0 0 0 0 0 0 0 0 0 0 0 0 0 0 0 0 0 0 0 0 0 0
-0 -0 -0 -0 -0 -0 -0 0 0 0 0 0 0 0 0 0 0 0 0 0 0 0 0 0 0 0 0 0 0 0 0 0 0 0 0 0 0 0 0 0 0 0 0 0 0 0 0 0 0 -0 0 0 0 0
-0 0 -0 -0 -0 -0 -0 -0 0 0 0 0 0 0 0 0 0 0 0 0 -0 0 -0 0 0 0 0 0 0 0 0 0 0 0 0 0 0 0 0 0 0 0 0 0 0 0 0 0 0 0 0 0 -0 0
0 0 0 -0 -0 -0 -0 -0 0 0 0 0 0 0 0 0 0 -0 -0 -0 0 -0 0 0 0 0 0 0 0 0 0 0 0 0 0 0 0 0 0 0 0 0 0 0 0 0 0 0 0 0 0 0 -0 0
0 0 0 0 0 -0 -0 -0 0 0 0 0 0 0 0 0 0 0 0 0 0 0 0 0 0 0 0 0 0 0 0 0 0 0 -0 0 0 0 0 0 0 0 0 0 0 0 0 0 0 0 0 0 0 0
0 -0 0 0 0 -0 -0 0 0 0 0 0 0 0 0 0 0 0 0 0 0 0 0 0 0 0 0 0 0 0 -0 -0 -0 0 0 0 0 0 0 0 0 0 0 0 0 0 0 0 0 0 0 0 0 0
0 0 -0 0 0 0 0 0 0 0 0 0 0 0 0 0 0 0 0 0 0 0 0 0 0 0 0 0 0 0 0 0 0 0 0 0 0 0 0 0 0 0 0 0 0 0 0 0 0 0 0 0 0 0
0 0 0 0 0 0 0 0 0 0 0 0 0 0 0 0 0 0 0 0 0 0 0 0 0 0 0 0 0 0 0 0 0 -0 0 -0 -0 -0 0 0 0 0 -0 0 0 0 0 0 0 0 -0 0 0 0
0 0 -0 0 0 0 0 0 0 0 0 0 0 0 0 0 0 0 0 0 0 0 0 0 0 0 0 -0 0 0 0 0 -0 0 -0 -0 -0 -0 -0 0 0 0 0 0 0 0 0 0 0 0 0 0 0 0
0 0 0 0 0 0 0 0 0 0 0 0 0 0 0 0 0 0 0 0 0 0 0 0 0 0 0 0 0 0 -0 -0 -0 -0 -0 0 0 -0 0 0 0 0 0 0 0 0 0 0 0 0 0 0 0 0
0 0 0 0 0 0 0 0 0 0 0 0 0 0 0 0 0 0 0 0 0 0 0 0 0 0 0 0 -0 -0 -0 -0 -0 -0 -0 0 0 0 0 0 0 0 0 0 0 0 0 0 0 0 0 0 0 0
0 0 0 0 0 0 0 0 0 0 0 0 0 0 0 0 0 0 0 0 0 0 0 0 0 0 0 0 0 -0 -0 -0 -0 0 -0 -0 -0 -0 0 0 0 0 0 0 0 0 0 0 0 0 0 0 0 0
0 0 0 0 0 0 0 0 0 0 0 0 0 0 0 0 0 0 0 0 0 0 0 0 0 0 0 0 0 0 -0 -0 -0 0 0 -0 -0 0 0 0 0 0 0 0 0 0 0 0 0 0 0 0 0 0
0 0 0 0 0 0 0 0 0 0 0 0 0 0 0 0 0 0 0 0 0 0 0 0 0 0 0 0 0 -0 -0 -0 -0 -0 -0 -0 -0 -0 0 0 0 0 0 0 0 0 0 0 0 0 0 0 0 0
0 0 0 0 0 0 0 0 0 0 0 0 0 0 0 0 0 0 0 0 0 0 0 0 0 0 0 0 0 -0 -0 -0 -0 0 -0 -0 -0 0 0 0 0 0 0 0 0 0 0 0 0 0 0 0 0 0
0 0 0 0 0 0 0 0 0 0 0 0 0 0 0 0 0 0 0 0 0 0 0 0 0 0 0 0 0 -0 -0 -0 -0 -0 -0 0 0 0 -0 0 0 0 0 0 0 0 0 0 0 0 0 0 0 0
0 0 0 0 0 0 0 0 0 0 0 0 0 0 0 0 0 0 0 0 0 0 0 0 0 0 0 0 0 -0 0 0 -0 0 0 0 0 0 0 0 0 0 0 0 0 0 0 0 0 0 0 0 0 0
0 0 0 0 0 0 0 0 0 0 0 0 0 0 0 0 0 0 0 0 0 0 0 0 0 0 0 0 0 0 0 0 0 0 0 0 0 0 0 0 0 0 0 0 0 0 0 0 0 0 0 0 0 0
0 0 0 0 0 0 0 0 0 0 0 0 0 0 0 0 0 0 0 0 0 0 0 0 0 0 0 0 0 0 0 0 0 0 0 0 0 0 0 0 0 0 0 0 0 0 0 0 0 0 0 0 0 0
0 0 0 0 0 0 0 0 0 0 0 0 0 0 0 0 0 0 0 0 0 0 0 0 0 0 0 0 0 0 0 0 0 0 0 0 0 0 0 0 0 0 0 0 0 0 0 0 0 0 0 0 0 0
0 0 0 0 0 0 0 0 0 0 0 0 0 0 0 0 0 0 0 0 0 0 0 0 0 0 0 0 0 0 0 0 0 0 0 0 0 0 0 0 0 0 0 0 0 0 0 0 0 0 0 0 0 0
0 0 0 0 0 0 0 0 0 0 0 0 0 0 0 0 0 0 0 0 0 0 0 0 0 0 0 0 0 0 0 0 0 0 0 0 0 0 0 0 0 0 0 0 0 0 0 0 0 0 0 0 0 0
0 0 0 0 0 0 0 0 0 0 0 0 0 0 0 0 0 0 0 0 0 0 0 0 0 0 0 0 0 0 0 0 0 0 0 0 0 0 0 0 0 0 0 0 0 0 0 0 0 0 0 0 0 0
0 0 0 0 0 0 0 0 0 0 0 0 0 0 0 0 0 0 0 0 0 0 0 0 0 0 0 0 0 0 0 0 0 0 0 0 0 0 0 0 0 0 0 0 0 0 0 0 0 0 0 0 0 0
Wind_Speed_500mb
80 83 86 86 88 93 94 101 105 96 80 78 79 83 75 71 67 67 70 64 68 31 26 51 48 23 16 25 11 8 8 8 1 21 11 8 9 16 16 19 16 14 13 16 10 22 39 16 12 30 13 44 1 34
83 84 90 91 95 97 102 109 109 79 61 63 53 71 78 77 71 75 58 63 68 36 21 49 52 64 67 52 29 18 11 7 18 7 9 9 8 10 25 30 23 31 25 22 19 10 14 54 52 58 49 58 54 30
85 91 90 93 99 102 104 103 76 51 47 52 51 65 71 76 69 82 71 51 68 38 15 31 55 68 58 58 50 16 21 27 26 38 7 9 10 24 14 25 19 21 17 14 11 18 11 58 48 52 55 62 63 41
86 92 91 97 103 104 107 84 56 45 47 45 37 38 75 70 72 65 61 63 68 23 9 17 42 50 55 55 54 62 66 56 53 49 22 14 13 21 30 19 32 23 18 16 19 29 8 53 49 67 56 50 44 39
85 90 92 96 104 107 102 62 30 37 43 40 41 53 84 85 75 63 75 66 71 31 7 12 20 29 28 32 40 48 59 59 43 11 7 8 12 4 2 14 28 11 16 17 18 15 34 61 62 58 54 55 58 47
84 89 92 97 102 111 72 26 21 32 28 31 31 9 52 85 74 67 22 55 54 57 0 2 2 14 25 38 39 51 54 42 15 8 1 2 9 7 6 6 11 36 40 55 14 24 48 66 67 65 67 49 31 23
82 86 91 96 100 104 44 26 20 23 16 22 30 36 54 74 75 50 16 22 69 50 13 4 6 11 20 16 21 33 36 23 13 7 3 6 4 14 6 8 12 40 34 26 27 23 18 24 20 37 38 22 19 17
79 84 86 93 95 96 40 29 20 14 3 7 20 34 48 57 45 31 23 28 73 28 12 4 7 5 17 10 6 16 10 7 7 6 1 5 3 4 3 19 23 32 32 38 27 22 32 31 27 36 30 42 32 24
77 81 83 89 97 89 35 21 14 9 2 13 23 34 39 26 15 17 25 43 40 15 9 5 9 8 20 11 10 10 11 3 4 2 3 7 3 6 18 3 18 32 21 39 42 42 45 44 48 41 35 44 45 36
74 76 80 86 88 79 29 15 11 9 15 17 48 13 9 11 27 42 21 22 16 17 10 6 13 5 14 6 2 5 2 6 2 8 12 6 8 33 48 50 18 15 30 39 40 39 44 53 54 46 44 44 50 49
69 72 75 80 81 72 25 15 12 14 20 14 10 10 15 50 26 17 9 6 9 6 12 11 20 7 21 5 5 9 5 2 3 9 12 4 7 18 9 28 18 7 10 14 16 19 20 26 27 39 34 36 45 53
66 67 68 72 69 69 39 17 12 9 4 9 13 25 25 14 8 5 5 1 6 10 5 8 8 11 14 13 5 5 6 4 10 3 7 7 4 19 23 19 22 26 28 29 27 31 31 37 38 40 39 36 31 26
62 62 63 64 63 55 57 42 3 15 12 17 6 8 4 3 5 11 9 5 3 4 1 5 4 11 9 11 4 5 8 10 1 5 8 6 10 34 42 39 34 28 31 36 39 40 44 47 46 42 47 45 45 45
59 58 58 62 48 53 54 41 12 14 5 2 4 4 7 2 4 6 7 6 1 4 5 8 3 5 5 4 4 6 8 5 1 4 12 3 20 44 48 46 46 45 39 36 36 40 45 48 53 53 48 41 44 51
58 58 59 54 53 54 48 44 9 12 7 8 5 8 4 6 10 8 8 6 5 2 4 4 7 6 2 5 3 6 4 9 11 9 2 13 41 43 50 52 50 47 44 39 32 37 42 43 47 53 47 42 43 45
61 62 56 48 52 52 54 30 12 9 3 5 9 7 2 6 3 6 8 4 6 2 2 3 4 4 6 6 5 11 7 11 3 3 15 29 34 42 50 52 48 42 42 41 35 34 36 39 41 39 35 36 42 46
54 44 35 52 52 51 46 19 8 10 8 8 3 14 11 14 7 7 6 3 2 2 4 4 8 7 4 3 5 4 5 3 8 23 28 38 38 44 51 54 48 42 39 37 35 31 31 28 29 32 32 38 41 40
52 56 56 52 45 48 26 9 5 8 10 9 6 3 12 11 15 10 6 5 5 1 6 3 3 6 4 6 3 3 6 20 23 22 39 33 31 40 50 48 46 38 37 33 30 25 21 21 32 38 41 42 41 38
49 52 49 36 29 16 8 3 3 8 5 12 21 16 15 20 19 11 10 10 12 7 4 5 9 3 3 4 2 10 20 22 26 46 44 28 38 44 46 40 35 30 27 21 12 13 19 24 31 35 42 46 45 47
48 40 27 17 20 9 6 4 7 13 6 11 14 14 14 13 9 21 21 15 9 7 13 8 4 1 1 5 12 21 25 27 33 43 41 44 48 45 38 35 31 23 16 12 10 13 15 20 26 36 43 46 49 54
39 16 20 16 14 14 6 5 10 11 15 12 23 8 12 9 10 14 16 16 16 10 5 9 6 3 7 8 11 17 18 21 25 28 41 49 49 35 30 24 19 15 10 7 6 11 22 26 30 36 40 41 46 49
15 17 8 12 5 6 10 11 14 15 11 11 10 9 8 5 6 10 10 21 10 8 7 6 10 9 6 8 10 14 17 17 18 23 21 25 36 36 29 21 12 7 3 1 6 11 16 24 30 32 35 41 45 52
7 4 5 3 5 8 5 7 7 6 7 3 7 7 5 4 5 10 6 10 8 14 13 12 9 6 7 9 12 14 12 14 17 22 22 23 27 28 23 18 13 9 9 9 12 16 21 27 33 41 47 55 62 70
5 5 13 11 17 5 4 6 7 8 9 6 6 6 4 1 4 8 6 4 10 14 10 9 8 3 3 9 12 14 13 13 14 18 21 23 27 34 33 24 17 15 18 19 23 28 31 39 44 52 59 66 75 83
3 19 15 12 15 6 9 7 7 7 7 5 7 4 3 3 6 6 3 3 10 16 15 10 8 10 10 8 10 11 12 11 14 21 23 25 25 25 31 33 31 22 20 25 33 37 42 49 55 62 67 77 86 94
15 13 11 13 9 8 7 6 7 5 5 6 5 4 1 6 9 2 4 11 9 14 16 14 11 6 7 9 9 7 9 7 9 15 22 26 29 31 37 41 43 41 34 35 37 47 53 56 59 68 79 87 91 95
11 10 12 15 8 7 7 9 11 8 9 6 4 6 5 9 3 4 3 11 9 12 11 11 9 7 6 5 5 7 10 12 13 16 22 27 27 31 35 42 48 45 42 44 50 57 68 78 84 85 85 86 86 86
9 17 10 18 11 20 6 6 8 8 4 10 2 10 7 4 5 4 6 11 10 6 6 8 6 3 1 3 5 9 14 17 19 18 21 24 26 29 36 38 39 39 46 45 52 60 65 71 77 78 78 79 75 70
10 21 10 9 8 12 11 9 5 7 7 6 5 5 4 6 6 7 8 9 8 7 4 6 8 8 8 8 8 11 11 9 9 13 13 18 22 24 28 30 32 35 42 51 51 53 56 57 61 64 69 68 66 63
13 20 5 7 9 10 13 13 11 17 20 18 21 30 29 25 26 21 17 13 11 11 10 11 12 12 16 14 15 13 11 11 14 15 15 16 20 22 22 23 26 29 31 33 38 45 48 51 51 50 53 57 55 53
14 12 8 10 6 5 11 21 31 32 35 40 38 29 18 13 24 37 31 23 16 12 13 14 14 15 14 15 16 17 19 19 20 20 19 18 20 21 21 22 24 27 29 29 31 34 37 41 43 41 40 41 42 39
14 12 4 6 2 5 5 5 7 8 8 9 11 10 8 8 9 15 35 27 16 15 16 14 14 20 22 22 20 19 19 19 18 17 15 15 16 18 20 21 22 23 26 28 30 32 32 32 34 33 33 33 32 31
11 17 13 6 4 4 9 6 6 6 11 7 10 10 10 8 8 17 21 26 21 19 16 17 18 19 19 18 18 18 17 15 13 16 15 13 13 15 16 18 19 20 21 22 24 25 25 25 25 26 25 24 24 23
Wind_Direction_500mb
324 320 322 321 319 319 316 314 312 306 300 297 265 240 232 230 224 216 222 224 213 216 225 208 202 189 161 186 190 207 126 241 99 215 215 207 190 209 216 209 194 177 182 210 220 234 247 246 245 217 232 256 318 319
325 322 323 324 323 321 319 318 318 302 292 316 270 232 217 219 218 210 218 219 217 215 238 215 227 235 236 226 214 202 205 138 196 165 190 198 212 183 210 228 214 230 215 227 205 205 189 251 247 238 242 255 251 250
325 324 324 325 325 324 321 321 322 309 306 305 309 218 212 217 216 225 212 211 199 200 184 213 226 225 232 237 234 218 244 231 228 229 204 205 191 201 201 226 221 223 192 200 210 231 239 260 247 226 219 228 237 252
325 325 326 326 327 325 325 320 312 307 311 304 286 237 213 215 214 212 211 204 185 184 158 246 235 240 239 242 242 237 249 244 253 255 236 219 219 209 218 215 214 215 162 199 235 235 241 240 239 221 206 217 227 251
326 327 329 328 330 327 331 317 305 318 318 315 299 255 226 209 209 208 211 214 207 194 157 212 213 236 236 233 230 233 235 241 261 242 179 178 186 279 220 196 220 179 203 211 231 219 214 233 237 220 216 237 245 248
326 329 331 332 332 334 345 330 327 334 339 357 350 333 194 195 189 167 144 202 206 183 157 19 287 240 227 223 218 224 231 245 233 299 244 243 180 158 139 186 216 204 212 214 220 236 245 237 247 251 236 226 225 253
326 330 332 333 335 347 342 325 331 340 350 30 54 93 135 158 158 161 165 197 199 178 153 359 305 222 227 202 209 226 227 221 241 202 154 191 262 136 155 193 222 213 223 232 240 185 202 200 210 225 230 226 229 276
327 330 332 334 337 347 331 318 306 326 9 98 102 113 138 151 147 106 129 153 174 161 154 141 270 321 169 183 176 187 172 212 236 233 97 121 35 63 281 238 217 245 266 271 265 247 247 266 263 252 257 232 240 264
327 331 330 333 337 346 343 313 312 303 239 171 150 139 141 157 162 145 114 147 159 156 170 139 160 230 173 163 153 165 163 204 287 179 263 121 315 216 231 241 212 240 239 263 275 270 263 260 266 264 257 227 236 255
328 331 330 333 340 353 350 302 310 282 229 209 145 140 141 152 147 160 134 160 173 207 223 215 155 171 174 150 161 103 146 188 168 243 153 132 242 248 251 253 281 267 257 252 252 256 258 260 261 257 251 258 255 248
327 328 330 333 339 351 331 255 297 6 231 189 139 138 137 144 147 184 148 148 198 177 208 207 184 140 177 130 183 190 188 198 115 250 156 234 263 229 308 253 276 278 238 241 231 238 244 251 263 272 276 264 260 263
326 326 328 331 334 354 346 321 238 319 256 156 150 138 150 166 145 160 163 324 210 204 198 162 185 142 152 187 117 202 156 84 233 162 123 240 231 20 358 328 300 288 278 268 259 253 249 254 260 265 271 275 269 256
322 323 323 326 326 334 349 339 278 256 189 143 149 128 151 293 107 174 203 286 171 337 185 163 130 135 133 184 132 119 168 219 20 206 225 227 341 347 348 337 320 310 296 282 270 263 261 258 256 257 263 260 261 259
319 319 321 321 320 321 338 331 191 240 296 213 174 159 159 196 244 177 169 174 345 302 15 28 66 118 110 150 125 124 239 68 238 241 230 359 348 339 338 334 327 319 312 301 287 274 266 263 259 255 256 258 255 255
315 315 318 313 318 318 321 323 234 234 244 210 167 198 163 151 66 113 101 117 41 337 14 98 60 88 342 114 134 106 40 244 212 231 296 316 331 333 332 333 326 318 312 301 289 277 268 264 260 257 252 251 249 245
313 308 311 309 317 322 318 311 223 208 227 100 63 81 75 75 308 88 65 69 34 96 136 77 121 144 213 161 115 219 141 224 242 346 313 320 323 323 324 324 321 314 307 301 290 279 265 256 257 258 256 245 242 233
310 302 306 314 315 315 311 298 221 149 98 63 19 72 79 76 119 118 123 134 301 248 197 144 157 186 95 180 215 199 235 21 335 314 317 316 318 319 322 319 319 314 311 302 288 272 260 252 240 238 242 236 226 215
300 297 304 306 311 308 298 232 185 99 73 74 102 70 81 83 108 116 124 92 138 114 331 136 91 167 199 216 195 40 348 320 317 309 320 325 324 319 320 317 315 311 312 309 298 280 258 246 232 215 210 212 205 194
301 301 301 297 289 289 264 230 136 101 107 105 112 101 100 98 78 104 118 113 104 102 126 49 72 93 135 36 327 334 336 336 314 320 327 332 316 319 317 316 311 305 305 309 299 261 251 240 222 208 199 196 197 186
298 295 292 266 251 236 209 105 96 101 124 134 120 107 96 92 104 65 83 93 86 51 43 42 71 111 323 294 306 307 314 321 325 326 329 338 342 332 329 321 316 316 308 280 242 213 206 193 188 187 183 183 183 177
311 283 300 217 218 206 129 114 82 94 118 89 121 96 98 83 44 37 30 33 61 35 67 48 71 331 299 309 316 322 326 325 324 312 317 317 337 334 334 333 320 321 310 271 232 173 177 172 167 173 175 174 178 175
275 290 200 180 189 115 91 62 102 105 82 113 95 79 61 48 24 23 30 51 63 39 28 19 6 11 9 0 355 345 339 341 341 340 335 347 354 0 3 5 5 356 335 190 163 162 163 161 162 168 172 167 170 165
321 163 148 149 132 64 64 87 93 63 104 117 91 67 33 55 47 13 71 60 78 18 10 9 360 2 15 19 1 353 350 355 6 10 10 20 27 25 25 30 51 84 112 121 142 147 157 162 163 163 163 159 161 158
19 58 38 34 18 76 73 44 68 81 87 63 70 87 23 141 87 53 70 17 29 4 9 24 21 50 34 20 9 12 17 19 15 13 14 23 36 42 41 42 58 88 110 122 141 142 149 155 158 156 155 154 154 153
92 13 19 12 12 17 46 32 22 62 81 45 92 49 352 51 73 59 113 312 350 4 13 29 50 49 34 8 356 1 11 10 19 24 24 28 40 54 56 59 64 83 116 131 133 141 142 149 152 150 150 151 149 147
68 10 33 357 3 28 6 67 39 55 87 71 45 277 19 82 63 13 266 335 345 354 3 13 21 28 29 14 0 5 16 29 39 35 37 47 52 58 63 64 67 71 94 114 131 137 137 138 140 144 142 142 140 137
54 1 2 24 347 333 51 60 51 55 62 59 355 2 60 67 50 273 316 345 345 341 350 354 351 348 352 18 28 41 54 73 82 75 64 64 65 71 75 75 66 66 82 102 115 122 127 129 130 130 130 129 130 130
60 28 33 338 40 21 61 50 37 44 37 343 23 40 94 102 199 319 331 347 352 352 4 18 16 23 23 106 112 108 111 108 104 96 83 78 80 83 85 82 85 90 92 94 104 112 117 121 122 124 124 123 122 122
33 353 1 24 46 47 36 31 43 26 359 357 101 94 112 79 63 58 37 30 31 32 36 73 81 83 103 114 128 132 120 115 123 111 103 90 91 88 89 91 96 98 105 109 111 112 116 118 119 121 120 121 121 123
354 5 35 42 44 37 21 39 60 62 72 80 97 104 94 87 72 64 60 59 57 59 78 100 101 103 100 101 96 99 101 103 116 123 123 115 104 100 98 100 101 101 102 109 114 117 118 118 120 122 126 126 127 129
350 1 62 49 74 34 61 83 81 81 85 86 99 99 107 111 69 45 40 36 42 69 91 97 100 101 97 92 88 89 87 91 103 111 108 109 108 110 110 109 108 107 109 111 113 115 117 122 123 125 124 124 124 126
18 26 82 92 88 54 66 59 71 78 58 54 48 60 75 81 69 37 20 28 53 84 94 94 97 99 95 85 81 85 90 94 102 105 105 109 113 115 115 114 115 115 116 118 119 119 120 121 121 123 124 125 127 130
30 37 51 84 89 65 25 37 71 87 59 60 46 43 50 67 78 25 15 22 47 65 82 99 104 100 91 80 74 82 88 93 98 107 109 114 119 121 121 119 119 119 119 119 119 120 121 123 125 125 126 128 130 131
Wind_Speed_850mb
80 83 86 86 88 93 94 101 105 96 80 78 79 83 75 71 67 67 70 64 68 31 26 51 48 23 16 25 11 8 8 8 1 21 11 8 9 16 16 19 16 14 13 16 10 22 39 16 12 30 13 44 1 34
83 84 90 91 95 97 102 109 109 79 61 63 53 71 78 77 71 75 58 63 68 36 21 49 52 64 67 52 29 18 11 7 18 7 9 9 8 10 25 30 23 31 25 22 19 10 14 54 52 58 49 58 54 30
85 91 90 93 99 102 104 103 76 51 47 52 51 65 71 76 69 82 71 51 68 38 15 31 55 68 58 58 50 16 21 27 26 38 7 9 10 24 14 25 19 21 17 14 11 18 11 58 48 52 55 62 63 41
86 92 91 97 103 104 107 84 56 45 47 45 37 38 75 70 72 65 61 63 68 23 9 17 42 50 55 55 54 62 66 56 53 49 22 14 13 21 30 19 32 23 18 16 19 29 8 53 49 67 56 50 44 39
85 90 92 96 104 107 102 62 30 37 43 40 41 53 84 85 75 63 75 66 71 31 7 12 20 29 28 32 40 48 59 59 43 11 7 8 12 4 2 14 28 11 16 17 18 15 34 61 62 58 54 55 58 47
84 89 92 97 102 111 72 26 21 32 28 31 31 9 52 85 74 67 22 55 54 57 0 2 2 14 25 38 39 51 54 42 15 8 1 2 9 7 6 6 11 36 40 55 14 24 48 66 67 65 67 49 31 23
82 86 91 96 100 104 44 26 20 23 16 22 30 36 54 74 75 50 16 22 69 50 13 4 6 11 20 16 21 33 36 23 13 7 3 6 4 14 6 8 12 40 34 26 27 23 18 24 20 37 38 22 19 17
79 84 86 93 95 96 40 29 20 14 3 7 20 34 48 57 45 31 23 28 73 28 12 4 7 5 17 10 6 16 10 7 7 6 1 5 3 4 3 19 23 32 32 38 27 22 32 31 27 36 30 42 32 24
77 81 83 89 97 89 35 21 14 9 2 13 23 34 39 26 15 17 25 43 40 15 9 5 9 8 20 11 10 10 11 3 4 2 3 7 3 6 18 3 18 32 21 39 42 42 45 44 48 41 35 44 45 36
74 76 80 86 88 79 29 15 11 9 15 17 48 13 9 11 27 42 21 22 16 17 10 6 13 5 14 6 2 5 2 6 2 8 12 6 8 33 48 50 18 15 30 39 40 39 44 53 54 46 44 44 50 49
69 72 75 80 81 72 25 15 12 14 20 14 10 10 15 50 26 17 9 6 9 6 12 11 20 7 21 5 5 9 5 2 3 9 12 4 7 18 9 28 18 7 10 14 16 19 20 26 27 39 34 36 45 53
66 67 68 72 69 69 39 17 12 9 4 9 13 25 25 14 8 5 5 1 6 10 5 8 8 11 14 13 5 5 6 4 10 3 7 7 4 19 23 19 22 26 28 29 27 31 31 37 38 40 39 36 31 26
62 62 63 64 63 55 57 42 3 15 12 17 6 8 4 3 5 11 9 5 3 4 1 5 4 11 9 11 4 5 8 10 1 5 8 6 10 34 42 39 34 28 31 36 39 40 44 47 46 42 47 45 45 45
59 58 58 62 48 53 54 41 12 14 5 2 4 4 7 2 4 6 7 6 1 4 5 8 3 5 5 4 4 6 8 5 1 4 12 3 20 44 48 46 46 45 39 36 36 40 45 48 53 53 48 41 44 51
58 58 59 54 53 54 48 44 9 12 7 8 5 8 4 6 10 8 8 6 5 2 4 4 7 6 2 5 3 6 4 9 11 9 2 13 41 43 50 52 50 47 44 39 32 37 42 43 47 53 47 42 43 45
61 62 56 48 52 52 54 30 12 9 3 5 9 7 2 6 3 6 8 4 6 2 2 3 4 4 6 6 5 11 7 11 3 3 15 29 34 42 50 52 48 42 42 41 35 34 36 39 41 39 35 36 42 46
54 44 35 52 52 51 46 19 8 10 8 8 3 14 11 14 7 7 6 3 2 2 4 4 8 7 4 3 5 4 5 3 8 23 28 38 38 44 51 54 48 42 39 37 35 31 31 28 29 32 32 38 41 40
52 56 56 52 45 48 26 9 5 8 10 9 6 3 12 11 15 10 6 5 5 1 6 3 3 6 4 6 3 3 6 20 23 22 39 33 31 40 50 48 46 38 37 33 30 25 21 21 32 38 41 42 41 38
49 52 49 36 29 16 8 3 3 8 5 12 21 16 15 20 19 11 10 10 12 7 4 5 9 3 3 4 2 10 20 22 26 46 44 28 38 44 46 40 35 30 27 21 12 13 19 24 31 35 42 46 45 47
48 40 27 17 20 9 6 4 7 13 6 11 14 14 14 13 9 21 21 15 9 7 13 8 4 1 1 5 12 21 25 27 33 43 41 44 48 45 38 35 31 23 16 12 10 13 15 20 26 36 43 46 49 54
39 16 20 16 14 14 6 5 10 11 15 12 23 8 12 9 10 14 16 16 16 10 5 9 6 3 7 8 11 17 18 21 25 28 41 49 49 35 30 24 19 15 10 7 6 11 22 26 30 36 40 41 46 49
15 17 8 12 5 6 10 11 14 15 11 11 10 9 8 5 6 10 10 21 10 8 7 6 10 9 6 8 10 14 17 17 18 23 21 25 36 36 29 21 12 7 3 1 6 11 16 24 30 32 35 41 45 52
7 4 5 3 5 8 5 7 7 6 7 3 7 7 5 4 5 10 6 10 8 14 13 12 9 6 7 9 12 14 12 14 17 22 22 23 27 28 23 18 13 9 9 9 12 16 21 27 33 41 47 55 62 70
5 5 13 11 17 5 4 6 7 8 9 6 6 6 4 1 4 8 6 4 10 14 10 9 8 3 3 9 12 14 13 13 14 18 21 23 27 34 33 24 17 15 18 19 23 28 31 39 44 52 59 66 75 83
3 19 15 12 15 6 9 7 7 7 7 5 7 4 3 3 6 6 3 3 10 16 15 10 8 10 10 8 10 11 12 11 14 21 23 25 25 25 31 33 31 22 20 25 33 37 42 49 55 62 67 77 86 94
15 13 11 13 9 8 7 6 7 5 5 6 5 4 1 6 9 2 4 11 9 14 16 14 11 6 7 9 9 7 9 7 9 15 22 26 29 31 37 41 43 41 34 35 37 47 53 56 59 68 79 87 91 95
11 10 12 15 8 7 7 9 11 8 9 6 4 6 5 9 3 4 3 11 9 12 11 11 9 7 6 5 5 7 10 12 13 16 22 27 27 31 35 42 48 45 42 44 50 57 68 78 84 85 85 86 86 86
9 17 10 18 11 20 6 6 8 8 4 10 2 10 7 4 5 4 6 11 10 6 6 8 6 3 1 3 5 9 14 17 19 18 21 24 26 29 36 38 39 39 46 45 52 60 65 71 77 78 78 79 75 70
10 21 10 9 8 12 11 9 5 7 7 6 5 5 4 6 6 7 8 9 8 7 4 6 8 8 8 8 8 11 11 9 9 13 13 18 22 24 28 30 32 35 42 51 51 53 56 57 61 64 69 68 66 63
13 20 5 7 9 10 13 13 11 17 20 18 21 30 29 25 26 21 17 13 11 11 10 11 12 12 16 14 15 13 11 11 14 15 15 16 20 22 22 23 26 29 31 33 38 45 48 51 51 50 53 57 55 53
14 12 8 10 6 5 11 21 31 32 35 40 38 29 18 13 24 37 31 23 16 12 13 14 14 15 14 15 16 17 19 19 20 20 19 18 20 21 21 22 24 27 29 29 31 34 37 41 43 41 40 41 42 39
14 12 4 6 2 5 5 5 7 8 8 9 11 10 8 8 9 15 35 27 16 15 16 14 14 20 22 22 20 19 19 19 18 17 15 15 16 18 20 21 22 23 26 28 30 32 32 32 34 33 33 33 32 31
11 17 13 6 4 4 9 6 6 6 11 7 10 10 10 8 8 17 21 26 21 19 16 17 18 19 19 18 18 18 17 15 13 16 15 13 13 15 16 18 19 20 21 22 24 25 25 25 25 26 25 24 24 23
Wind_Direction_850mb
324 320 322 321 319 319 316 314 312 306 300 297 265 240 232 230 224 216 222 224 213 216 225 208 202 189 161 186 190 207 126 241 99 215 215 207 190 209 216 209 194 177 182 210 220 234 247 246 245 217 232 256 318 319
325 322 323 324 323 321 319 318 318 302 292 316 270 232 217 219 218 210 218 219 217 215 238 215 227 235 236 226 214 202 205 138 196 165 190 198 212 183 210 228 214 230 215 227 205 205 189 251 247 238 242 255 251 250
325 324 324 325 325 324 321 321 322 309 306 305 309 218 212 217 216 225 212 211 199 200 184 213 226 225 232 237 234 218 244 231 228 229 204 205 191 201 201 226 221 223 192 200 210 231 239 260 247 226 219 228 237 252
325 325 326 326 327 325 325 320 312 307 311 304 286 237 213 215 214 212 211 204 185 184 158 246 235 240 239 242 242 237 249 244 253 255 236 219 219 209 218 215 214 215 162 199 235 235 241 240 239 221 206 217 227 251
326 327 329 328 330 327 331 317 305 318 318 315 299 255 226 209 209 208 211 214 207 194 157 212 213 236 236 233 230 233 235 241 261 242 179 178 186 279 220 196 220 179 203 211 231 219 214 233 237 220 216 237 245 248
326 329 331 332 332 334 345 330 327 334 339 357 350 333 194 195 189 167 144 202 206 183 157 19 287 240 227 223 218 224 231 245 233 299 244 243 180 158 139 186 216 204 212 214 220 236 245 237 247 251 236 226 225 253
326 330 332 333 335 347 342 325 331 340 350 30 54 93 135 158 158 161 165 197 199 178 153 359 305 222 227 202 209 226 227 221 241 202 154 191 262 136 155 193 222 213 223 232 240 185 202 200 210 225 230 226 229 276
327 330 332 334 337 347 331 318 306 326 9 98 102 113 138 151 147 106 129 153 174 161 154 141 270 321 169 183 176 187 172 212 236 233 97 121 35 63 281 238 217 245 266 271 265 247 247 266 263 252 257 232 240 264
327 331 330 333 337 346 343 313 312 303 239 171 150 139 141 157 162 145 114 147 159 156 170 139 160 230 173 163 153 165 163 204 287 179 263 121 315 216 231 241 212 240 239 263 275 270 263 260 266 264 257 227 236 255
328 331 330 333 340 353 350 302 310 282 229 209 145 140 141 152 147 160 134 160 173 207 223 215 155 171 174 150 161 103 146 188 168 243 153 132 242 248 251 253 281 267 257 252 252 256 258 260 261 257 251 258 255 248
327 328 330 333 339 351 331 255 297 6 231 189 139 138 137 144 147 184 148 148 198 177 208 207 184 140 177 130 183 190 188 198 115 250 156 234 263 229 308 253 276 278 238 241 231 238 244 251 263 272 276 264 260 263
326 326 328 331 334 354 346 321 238 319 256 156 150 138 150 166 145 160 163 324 210 204 198 162 185 142 152 187 117 202 156 84 233 162 123 240 231 20 358 328 300 288 278 268 259 253 249 254 260 265 271 275 269 256
322 323 323 326 326 334 349 339 278 256 189 143 149 128 151 293 107 174 203 286 171 337 185 163 130 135 133 184 132 119 168 219 20 206 225 227 341 347 348 337 320 310 296 282 270 263 261 258 256 257 263 260 261 259
319 319 321 321 320 321 338 331 191 240 296 213 174 159 159 196 244 177 169 174 345 302 15 28 66 118 110 150 125 124 239 68 238 241 230 359 348 339 338 334 327 319 312 301 287 274 266 263 259 255 256 258 255 255
315 315 318 313 318 318 321 323 234 234 244 210 167 198 163 151 66 113 101 117 41 337 14 98 60 88 342 114 134 106 40 244 212 231 296 316 331 333 332 333 326 318 312 301 289 277 268 264 260 257 252 251 249 245
313 308 311 309 317 322 318 311 223 208 227 100 63 81 75 75 308 88 65 69 34 96 136 77 121 144 213 161 115 219 141 224 242 346 313 320 323 323 324 324 321 314 307 301 290 279 265 256 257 258 256 245 242 233
310 302 306 314 315 315 311 298 221 149 98 63 19 72 79 76 119 118 123 134 301 248 197 144 157 186 95 180 215 199 235 21 335 314 317 316 318 319 322 319 319 314 311 302 288 272 260 252 240 238 242 236 226 215
300 297 304 306 311 308 298 232 185 99 73 74 102 70 81 83 108 116 124 92 138 114 331 136 91 167 199 216 195 40 348 320 317 309 320 325 324 319 320 317 315 311 312 309 298 280 258 246 232 215 210 212 205 194
301 301 301 297 289 289 264 230 136 101 107 105 112 101 100 98 78 104 118 113 104 102 126 49 72 93 135 36 327 334 336 336 314 320 327 332 316 319 317 316 311 305 305 309 299 261 251 240 222 208 199 196 197 186
298 295 292 266 251 236 209 105 96 101 124 134 120 107 96 92 104 65 83 93 86 51 43 42 71 111 323 294 306 307 314 321 325 326 329 338 342 332 329 321 316 316 308 280 242 213 206 193 188 187 183 183 183 177
311 283 300 217 218 206 129 114 82 94 118 89 121 96 98 83 44 37 30 33 61 35 67 48 71 331 299 309 316 322 326 325 324 312 317 317 337 334 334 333 320 321 310 271 232 173 177 172 167 173 175 174 178 175
275 290 200 180 189 115 91 62 102 105 82 113 95 79 61 48 24 23 30 51 63 39 28 19 6 11 9 0 355 345 339 341 341 340 335 347 354 0 3 5 5 356 335 190 163 162 163 161 162 168 172 167 170 165
321 163 148 149 132 64 64 87 93 63 104 117 91 67 33 55 47 13 71 60 78 18 10 9 360 2 15 19 1 353 350 355 6 10 10 20 27 25 25 30 51 84 112 121 142 147 157 162 163 163 163 159 161 158
19 58 38 34 18 76 73 44 68 81 87 63 70 87 23 141 87 53 70 17 29 4 9 24 21 50 34 20 9 12 17 19 15 13 14 23 36 42 41 42 58 88 110 122 141 142 149 155 158 156 155 154 154 153
92 13 19 12 12 17 46 32 22 62 81 45 92 49 352 51 73 59 113 312 350 4 13 29 50 49 34 8 356 1 11 10 19 24 24 28 40 54 56 59 64 83 116 131 133 141 142 149 152 150 150 151 149 147
68 10 33 357 3 28 6 67 39 55 87 71 45 277 19 82 63 13 266 335 345 354 3 13 21 28 29 14 0 5 16 29 39 35 37 47 52 58 63 64 67 71 94 114 131 137 137 138 140 144 142 142 140 137
54 1 2 24 347 333 51 60 51 55 62 59 355 2 60 67 50 273 316 345 345 341 350 354 351 348 352 18 28 41 54 73 82 75 64 64 65 71 75 75 66 66 82 102 115 122 127 129 130 130 130 129 130 130
60 28 33 338 40 21 61 50 37 44 37 343 23 40 94 102 199 319 331 347 352 352 4 18 16 23 23 106 112 108 111 108 104 96 83 78 80 83 85 82 85 90 92 94 104 112 117 121 122 124 124 123 122 122
33 353 1 24 46 47 36 31 43 26 359 357 101 94 112 79 63 58 37 30 31 32 36 73 81 83 103 114 128 132 120 115 123 111 103 90 91 88 89 91 96 98 105 109 111 112 116 118 119 121 120 121 121 123
354 5 35 42 44 37 21 39 60 62 72 80 97 104 94 87 72 64 60 59 57 59 78 100 101 103 100 101 96 99 101 103 116 123 123 115 104 100 98 100 101 101 102 109 114 117 118 118 120 122 126 126 127 129
350 1 62 49 74 34 61 83 81 81 85 86 99 99 107 111 69 45 40 36 42 69 91 97 100 101 97 92 88 89 87 91 103 111 108 109 108 110 110 109 108 107 109 111 113 115 117 122 123 125 124 124 124 126
18 26 82 92 88 54 66 59 71 78 58 54 48 60 75 81 69 37 20 28 53 84 94 94 97 99 95 85 81 85 90 94 102 105 105 109 113 115 115 114 115 115 116 118 119 119 120 121 121 123 124 125 127 130
30 37 51 84 89 65 25 37 71 87 59 60 46 43 50 67 78 25 15 22 47 65 82 99 104 100 91 80 74 82 88 93 98 107 109 114 119 121 121 119 119 119 119 119 119 120 121 123 125 125 126 128 130 131